LA1HSA-13 Weather Reports


time (UTC)temp
F
wind
direction
speed
knots
gust
knots
rain 1hr
in
rain 24hr
in
rain mn
in
humidity
%
barometer
mb
20260502232003 43 0 0.0 0.0 0.00 0.00 0.00 97 1009.1
20260502231003 44 0 0.0 0.0 0.00 0.00 0.00 97 1009.2
20260502230004 44 0 0.0 0.0 0.00 0.00 0.00 97 1009.1
20260502225003 44 0 0.0 0.0 0.00 0.00 0.00 97 1008.8
20260502224003 44 0 0.0 0.0 0.00 0.00 0.00 97 1009.3
20260502223004 45 0 0.0 0.0 0.00 0.00 0.00 97 1008.9
20260502222003 46 0 0.0 0.0 0.00 0.00 0.00 97 1008.8
20260502221003 46 0 0.0 0.0 0.00 0.00 0.00 98 1008.8
20260502220022 46 0 0.0 0.0 0.00 0.00 0.00 97 1008.8
20260502214003 47 0 0.0 0.0 0.00 0.00 0.00 96 1008.9
20260502213003 48 0 0.0 0.0 0.00 0.00 0.00 96 1009.0
20260502212004 48 0 0.0 0.0 0.00 0.00 0.00 96 1009.2
20260502211003 48 0 0.0 0.0 0.00 0.00 0.00 96 1008.8
20260502210003 49 0 0.0 0.0 0.00 0.00 0.00 95 1009.0
20260502205003 48 0 0.0 0.0 0.00 0.00 0.00 94 1009.0
20260502204003 49 0 0.0 1.7 0.00 0.00 0.00 94 1009.3
20260502203003 49 0 0.0 3.5 0.00 0.00 0.00 93 1009.1
20260502202003 49 0 0.0 1.7 0.00 0.00 0.00 92 1009.0
20260502201003 50 0 0.0 1.7 0.00 0.00 0.00 89 1009.3
20260502200003 49 0 0.0 0.0 0.00 0.00 0.00 82 1009.1
20260502195003 49 0 0.0 0.0 0.00 0.00 0.00 81 1009.4
20260502194003 50 0 0.0 0.0 0.00 0.00 0.00 80 1009.2
20260502193003 50 0 0.0 1.7 0.00 0.00 0.00 79 1009.3
20260502192003 50 0 0.0 0.0 0.00 0.00 0.00 79 1009.2
20260502191003 51 0 0.0 0.0 0.00 0.00 0.00 77 1009.0
20260502190004 51 0 0.0 1.7 0.00 0.00 0.00 75 1009.1
20260502185003 51 27 1.7 3.5 0.00 0.00 0.00 74 1009.2
20260502184003 52 20 0.9 3.5 0.00 0.00 0.00 73 1009.0
20260502183003 52 40 0.9 3.5 0.00 0.00 0.00 73 1008.9
20260502182003 52 358 0.9 3.5 0.00 0.00 0.00 72 1008.7
20260502181003 52 360 0.9 3.5 0.00 0.00 0.00 73 1009.0
20260502164003 54 48 2.6 3.5 0.00 0.00 0.00 61 1009.5
20260502163003 55 48 1.7 3.5 0.00 0.00 0.00 61 1009.8
20260502162003 56 57 1.7 3.5 0.00 0.00 0.00 58 1009.7
20260502161003 56 36 1.7 5.2 0.00 0.00 0.00 55 1009.8
20260502152003 58 44 2.6 7.0 0.00 0.00 0.00 45 1009.6
20260502151003 60 48 3.5 7.0 0.00 0.00 0.00 41 1009.3
20260502123003 63 14 2.6 9.6 0.00 0.00 0.00 38 1010.5
20260502122003 62 26 1.7 7.8 0.00 0.00 0.00 38 1010.7
20260502121003 63 11 1.7 7.0 0.00 0.00 0.00 40 1010.5
20260502115003 62 321 0.9 6.1 0.00 0.00 0.00 38 1010.8
20260502114003 62 351 2.6 3.5 0.00 0.00 0.00 41 1010.7
20260502113004 62 322 1.7 7.0 0.00 0.00 0.00 39 1011.1
20260502112003 62 5 1.7 6.1 0.00 0.00 0.00 37 1011.0
20260502111007 62 359 2.6 6.1 0.00 0.00 0.00 36 1011.2
20260502110004 62 20 3.5 7.8 0.00 0.00 0.00 38 1011.3
20260502105003 63 19 3.5 7.8 0.00 0.00 0.00 36 1011.2
20260502104003 64 4 3.5 7.8 0.00 0.00 0.00 38 1011.4
20260502103003 64 8 3.5 9.6 0.00 0.00 0.00 35 1011.3
20260502102003 64 334 5.2 7.8 0.00 0.00 0.00 35 1011.3
20260502101003 64 332 4.3 7.8 0.00 0.00 0.00 34 1011.5
20260502091003 62 328 1.7 6.1 0.00 0.00 0.00 41 1011.7
20260502071003 55 352 1.7 6.1 0.00 0.00 0.00 59 1013.1
20260502070003 54 355 2.6 7.0 0.00 0.00 0.00 59 1013.0
20260502065003 54 323 2.6 6.1 0.00 0.00 0.00 60 1013.3
20260502064003 53 6 1.7 7.8 0.00 0.00 0.00 62 1013.3
20260502063003 52 5 4.3 7.8 0.00 0.00 0.00 62 1013.5
20260502062003 52 20 1.7 6.1 0.00 0.00 0.00 63 1013.5
20260502061003 51 7 3.5 7.0 0.00 0.00 0.00 62 1013.5
20260502060003 51 337 1.7 7.0 0.00 0.00 0.00 65 1013.7
20260502055003 50 325 1.7 3.5 0.00 0.00 0.00 67 1013.5
20260502054003 49 353 1.7 5.2 0.00 0.00 0.00 68 1013.8
20260502053003 49 350 0.9 5.2 0.00 0.00 0.00 70 1013.7
20260502052003 48 339 1.7 5.2 0.00 0.00 0.00 70 1013.9
20260502051003 48 355 1.7 6.1 0.00 0.00 0.00 71 1013.7
20260502050003 47 7 1.7 3.5 0.00 0.00 0.00 71 1013.8
20260502045003 47 19 1.7 6.1 0.00 0.00 0.00 74 1013.8
20260502044003 47 6 0.9 5.2 0.00 0.00 0.00 73 1013.8
20260502043003 47 347 1.7 5.2 0.00 0.00 0.00 73 1013.9
20260502042004 46 343 1.7 3.5 0.00 0.00 0.00 74 1014.0
20260502041003 45 355 0.9 3.5 0.00 0.00 0.00 77 1014.1
20260502040003 45 318 0.9 1.7 0.00 0.00 0.00 79 1014.0
20260502035003 44 0 0.0 1.7 0.00 0.00 0.00 79 1014.0
20260502034003 44 0 0.0 1.7 0.00 0.00 0.00 79 1014.3
20260502033003 44 0 0.0 1.7 0.00 0.00 0.00 78 1014.2
20260502032003 44 0 0.0 1.7 0.00 0.00 0.00 78 1014.5
20260502031003 45 0 0.0 3.5 0.00 0.00 0.00 78 1014.6
20260502030003 45 333 0.9 3.5 0.00 0.00 0.00 78 1014.7
20260502025003 45 341 1.7 3.5 0.00 0.00 0.00 78 1014.7
20260502024003 46 333 0.9 5.2 0.00 0.00 0.00 77 1014.9
20260502023003 46 324 1.7 3.5 0.00 0.00 0.00 77 1014.9
20260502022003 46 331 1.7 3.5 0.00 0.00 0.00 78 1015.1
20260502021003 46 330 1.7 3.5 0.00 0.00 0.00 78 1015.2
20260502020003 46 320 0.9 3.5 0.00 0.00 0.00 80 1015.2
20260502015003 46 321 0.9 3.5 0.00 0.00 0.00 79 1015.5
20260502014003 46 318 2.6 3.5 0.00 0.00 0.00 79 1015.4
20260502013003 46 288 1.7 3.5 0.00 0.00 0.00 80 1015.6
20260502012003 46 303 1.7 3.5 0.00 0.00 0.00 80 1015.7
20260502011003 47 301 1.7 3.5 0.00 0.00 0.00 79 1015.7
20260502010003 47 301 1.7 5.2 0.00 0.00 0.00 78 1015.8
20260502005003 47 309 1.7 5.2 0.00 0.00 0.00 77 1016.0
20260502004003 47 300 1.7 3.5 0.00 0.00 0.00 77 1016.0
20260502003003 48 306 1.7 3.5 0.00 0.00 0.00 76 1016.2
20260502002003 48 326 1.7 3.5 0.00 0.00 0.00 75 1016.1
20260502001003 48 297 1.7 3.5 0.00 0.00 0.00 75 1015.9
20260502000003 48 330 1.7 3.5 0.00 0.00 0.00 75 1016.3
20260501235003 48 0 0.0 3.5 0.00 0.00 0.00 75 1016.1
20260501234003 48 308 0.9 1.7 0.00 0.00 0.00 74 1016.5
20260501233003 49 317 0.9 1.7 0.00 0.00 0.00 73 1016.4